Time,TemperatureF,DewpointF,PressureIn,WindDirection,WindDirectionDegrees,WindSpeedMPH,WindSpeedGustMPH,Humidity,HourlyPrecipIn,Conditions,Clouds,dailyrainin,SoftwareType,DateUTC
2015-05-29 00:03:00,79.8,36.4,29.77,WNW,284,0.0,2.0,21,0.00,,,0.00,Wunderground v.1.15,2015-05-29 07:03:00,
2015-05-29 00:09:00,79.6,36.2,29.77,WNW,284,2.0,2.0,21,0.00,,,0.00,Wunderground v.1.15,2015-05-29 07:09:00,
2015-05-29 00:14:00,79.5,36.1,29.77,WNW,284,0.0,2.0,21,0.00,,,0.00,Wunderground v.1.15,2015-05-29 07:14:00,
2015-05-29 00:20:00,79.2,35.9,29.77,WNW,284,0.0,0.0,21,0.00,,,0.00,Wunderground v.1.15,2015-05-29 07:20:00,
2015-05-29 00:26:00,78.8,36.7,29.76,WNW,284,0.0,1.0,22,0.00,,,0.00,Wunderground v.1.15,2015-05-29 07:26:00,
2015-05-29 00:31:00,78.5,36.5,29.76,WNW,284,0.0,2.0,22,0.00,,,0.00,Wunderground v.1.15,2015-05-29 07:31:00,
2015-05-29 00:37:00,78.4,36.4,29.76,WNW,284,1.0,3.0,22,0.00,,,0.00,Wunderground v.1.15,2015-05-29 07:37:00,
2015-05-29 00:43:00,78.3,36.3,29.77,WNW,284,0.0,2.0,22,0.00,,,0.00,Wunderground v.1.15,2015-05-29 07:43:00,
2015-05-29 00:48:00,78.2,36.2,29.77,WNW,284,1.0,2.0,22,0.00,,,0.00,Wunderground v.1.15,2015-05-29 07:48:00,
2015-05-29 00:53:00,78.2,36.2,29.77,WNW,284,0.0,1.0,22,0.00,,,0.00,Wunderground v.1.15,2015-05-29 07:53:00,
2015-05-29 00:58:00,78.1,36.1,29.77,WNW,284,2.0,2.0,22,0.00,,,0.00,Wunderground v.1.15,2015-05-29 07:58:00,
2015-05-29 01:04:00,78.0,36.1,29.76,WNW,284,1.0,1.0,22,0.00,,,0.00,Wunderground v.1.15,2015-05-29 08:04:00,
2015-05-29 01:09:00,77.9,37.1,29.76,WNW,284,0.0,1.0,23,0.00,,,0.00,Wunderground v.1.15,2015-05-29 08:09:00,
2015-05-29 01:14:00,77.9,37.1,29.76,WNW,284,0.0,1.0,23,0.00,,,0.00,Wunderground v.1.15,2015-05-29 08:14:00,
2015-05-29 01:19:00,77.6,36.8,29.76,WNW,284,0.0,0.0,23,0.00,,,0.00,Wunderground v.1.15,2015-05-29 08:19:00,
2015-05-29 01:25:00,77.3,36.6,29.76,WNW,284,0.0,1.0,23,0.00,,,0.00,Wunderground v.1.15,2015-05-29 08:25:00,
2015-05-29 01:31:00,76.9,36.3,29.76,WNW,284,0.0,0.0,23,0.00,,,0.00,Wunderground v.1.15,2015-05-29 08:31:00,
2015-05-29 01:37:00,76.7,36.1,29.76,WNW,284,0.0,0.0,23,0.00,,,0.00,Wunderground v.1.15,2015-05-29 08:37:00,
2015-05-29 01:43:00,76.1,37.7,29.76,WNW,284,0.0,0.0,25,0.00,,,0.00,Wunderground v.1.15,2015-05-29 08:43:00,
2015-05-29 01:49:00,75.6,37.3,29.76,WNW,284,0.0,0.0,25,0.00,,,0.00,Wunderground v.1.15,2015-05-29 08:49:00,
2015-05-29 01:54:00,75.1,36.9,29.76,WNW,284,0.0,0.0,25,0.00,,,0.00,Wunderground v.1.15,2015-05-29 08:54:00,
2015-05-29 02:00:00,74.6,37.4,29.76,WNW,284,0.0,0.0,26,0.00,,,0.00,Wunderground v.1.15,2015-05-29 09:00:00,
2015-05-29 02:05:00,74.1,37.0,29.76,WNW,284,0.0,0.0,26,0.00,,,0.00,Wunderground v.1.15,2015-05-29 09:05:00,
2015-05-29 02:10:00,73.6,36.6,29.76,WNW,284,0.0,0.0,26,0.00,,,0.00,Wunderground v.1.15,2015-05-29 09:10:00,
2015-05-29 02:15:00,73.1,36.2,29.76,WNW,284,0.0,0.0,26,0.00,,,0.00,Wunderground v.1.15,2015-05-29 09:15:00,
2015-05-29 02:20:00,72.4,36.5,29.76,WNW,284,0.0,0.0,27,0.00,,,0.00,Wunderground v.1.15,2015-05-29 09:20:00,
2015-05-29 02:25:00,71.9,37.0,29.76,WNW,284,0.0,0.0,28,0.00,,,0.00,Wunderground v.1.15,2015-05-29 09:25:00,
2015-05-29 02:30:00,71.5,36.7,29.76,WNW,284,0.0,0.0,28,0.00,,,0.00,Wunderground v.1.15,2015-05-29 09:30:00,
2015-05-29 02:35:00,71.1,35.4,29.76,WNW,284,0.0,0.0,27,0.00,,,0.00,Wunderground v.1.15,2015-05-29 09:35:00,
2015-05-29 02:40:00,70.8,36.1,29.76,WNW,284,0.0,0.0,28,0.00,,,0.00,Wunderground v.1.15,2015-05-29 09:40:00,
2015-05-29 02:45:00,70.3,34.7,29.76,WNW,284,0.0,0.0,27,0.00,,,0.00,Wunderground v.1.15,2015-05-29 09:45:00,
2015-05-29 02:51:00,69.9,34.4,29.76,WNW,284,0.0,0.0,27,0.00,,,0.00,Wunderground v.1.15,2015-05-29 09:51:00,
2015-05-29 02:56:00,69.5,34.0,29.76,WNW,284,0.0,0.0,27,0.00,,,0.00,Wunderground v.1.15,2015-05-29 09:56:00,
2015-05-29 03:01:00,69.2,33.8,29.76,WNW,284,0.0,0.0,27,0.00,,,0.00,Wunderground v.1.15,2015-05-29 10:01:00,
2015-05-29 03:06:00,68.9,34.4,29.76,WNW,284,0.0,0.0,28,0.00,,,0.00,Wunderground v.1.15,2015-05-29 10:06:00,
2015-05-29 03:11:00,68.9,34.4,29.76,WNW,284,0.0,0.0,28,0.00,,,0.00,Wunderground v.1.15,2015-05-29 10:11:00,
2015-05-29 03:16:00,68.9,34.4,29.77,WNW,284,0.0,0.0,28,0.00,,,0.00,Wunderground v.1.15,2015-05-29 10:16:00,
2015-05-29 03:21:00,69.0,34.5,29.77,WNW,284,0.0,0.0,28,0.00,,,0.00,Wunderground v.1.15,2015-05-29 10:21:00,
2015-05-29 03:26:00,69.2,34.7,29.77,WNW,284,0.0,0.0,28,0.00,,,0.00,Wunderground v.1.15,2015-05-29 10:26:00,
2015-05-29 03:31:00,69.3,34.8,29.77,WNW,284,0.0,0.0,28,0.00,,,0.00,Wunderground v.1.15,2015-05-29 10:31:00,
2015-05-29 03:36:00,69.5,34.9,29.77,WNW,284,0.0,2.0,28,0.00,,,0.00,Wunderground v.1.15,2015-05-29 10:36:00,
2015-05-29 03:41:00,69.7,35.1,29.77,WNW,284,0.0,1.0,28,0.00,,,0.00,Wunderground v.1.15,2015-05-29 10:41:00,
2015-05-29 03:46:00,69.8,34.3,29.77,WNW,284,1.0,1.0,27,0.00,,,0.00,Wunderground v.1.15,2015-05-29 10:46:00,
2015-05-29 03:51:00,70.0,34.5,29.77,WNW,284,0.0,0.0,27,0.00,,,0.00,Wunderground v.1.15,2015-05-29 10:51:00,
2015-05-29 03:56:00,70.0,34.5,29.77,WNW,284,0.0,0.0,27,0.00,,,0.00,Wunderground v.1.15,2015-05-29 10:56:00,
2015-05-29 04:01:00,70.1,34.5,29.77,WNW,284,0.0,0.0,27,0.00,,,0.00,Wunderground v.1.15,2015-05-29 11:01:00,
2015-05-29 04:06:00,70.1,34.5,29.77,WNW,284,0.0,0.0,27,0.00,,,0.00,Wunderground v.1.15,2015-05-29 11:06:00,
2015-05-29 04:11:00,70.0,35.4,29.77,WNW,284,0.0,0.0,28,0.00,,,0.00,Wunderground v.1.15,2015-05-29 11:11:00,
2015-05-29 04:16:00,69.8,34.3,29.77,WNW,284,0.0,0.0,27,0.00,,,0.00,Wunderground v.1.15,2015-05-29 11:16:00,
2015-05-29 04:21:00,69.6,34.1,29.77,WNW,284,0.0,0.0,27,0.00,,,0.00,Wunderground v.1.15,2015-05-29 11:21:00,
2015-05-29 04:26:00,69.3,33.9,29.77,WNW,284,0.0,0.0,27,0.00,,,0.00,Wunderground v.1.15,2015-05-29 11:26:00,
2015-05-29 04:31:00,69.0,34.5,29.77,WNW,284,0.0,0.0,28,0.00,,,0.00,Wunderground v.1.15,2015-05-29 11:31:00,
2015-05-29 04:36:00,68.5,34.1,29.77,WNW,284,0.0,0.0,28,0.00,,,0.00,Wunderground v.1.15,2015-05-29 11:36:00,
2015-05-29 04:41:00,68.1,34.6,29.77,WNW,284,0.0,0.0,29,0.00,,,0.00,Wunderground v.1.15,2015-05-29 11:41:00,
2015-05-29 04:46:00,67.6,34.2,29.78,WNW,284,0.0,0.0,29,0.00,,,0.00,Wunderground v.1.15,2015-05-29 11:46:00,
2015-05-29 04:51:00,67.3,33.9,29.78,WNW,284,0.0,0.0,29,0.00,,,0.00,Wunderground v.1.15,2015-05-29 11:51:00,
2015-05-29 04:56:00,67.0,33.7,29.78,WNW,284,0.0,0.0,29,0.00,,,0.00,Wunderground v.1.15,2015-05-29 11:56:00,
2015-05-29 05:01:00,66.7,33.4,29.78,WNW,284,0.0,0.0,29,0.00,,,0.00,Wunderground v.1.15,2015-05-29 12:01:00,
2015-05-29 05:06:00,66.4,34.0,29.79,WNW,284,0.0,0.0,30,0.00,,,0.00,Wunderground v.1.15,2015-05-29 12:06:00,
2015-05-29 05:11:00,66.1,33.7,29.79,WNW,284,0.0,0.0,30,0.00,,,0.00,Wunderground v.1.15,2015-05-29 12:11:00,
2015-05-29 05:16:00,65.7,33.4,29.79,WNW,284,0.0,0.0,30,0.00,,,0.00,Wunderground v.1.15,2015-05-29 12:16:00,
2015-05-29 05:21:00,65.4,34.0,29.79,WNW,284,0.0,0.0,31,0.00,,,0.00,Wunderground v.1.15,2015-05-29 12:21:00,
2015-05-29 05:26:00,65.2,33.8,29.79,WNW,284,0.0,0.0,31,0.00,,,0.00,Wunderground v.1.15,2015-05-29 12:26:00,
2015-05-29 05:31:00,65.0,34.4,29.79,WNW,284,0.0,0.0,32,0.00,,,0.00,Wunderground v.1.15,2015-05-29 12:31:00,
2015-05-29 05:36:00,64.9,34.3,29.79,WNW,284,0.0,0.0,32,0.00,,,0.00,Wunderground v.1.15,2015-05-29 12:36:00,
2015-05-29 05:41:00,64.8,34.2,29.79,WNW,284,0.0,0.0,32,0.00,,,0.00,Wunderground v.1.15,2015-05-29 12:41:00,
2015-05-29 05:46:00,64.8,34.2,29.79,WNW,284,0.0,0.0,32,0.00,,,0.00,Wunderground v.1.15,2015-05-29 12:46:00,
2015-05-29 05:51:00,64.9,34.3,29.79,WNW,284,0.0,0.0,32,0.00,,,0.00,Wunderground v.1.15,2015-05-29 12:51:00,
2015-05-29 05:57:00,65.2,34.6,29.79,WNW,284,0.0,0.0,32,0.00,,,0.00,Wunderground v.1.15,2015-05-29 12:57:00,
2015-05-29 06:02:00,65.5,34.8,29.79,WNW,284,0.0,0.0,32,0.00,,,0.00,Wunderground v.1.15,2015-05-29 13:02:00,
2015-05-29 06:07:00,66.0,35.3,29.79,WNW,284,0.0,0.0,32,0.00,,,0.00,Wunderground v.1.15,2015-05-29 13:07:00,
2015-05-29 06:12:00,66.6,35.8,29.80,WNW,284,0.0,0.0,32,0.00,,,0.00,Wunderground v.1.15,2015-05-29 13:12:00,
2015-05-29 06:17:00,67.6,36.7,29.80,WNW,284,0.0,0.0,32,0.00,,,0.00,Wunderground v.1.15,2015-05-29 13:17:00,
2015-05-29 06:22:00,69.0,37.1,29.80,WNW,284,0.0,0.0,31,0.00,,,0.00,Wunderground v.1.15,2015-05-29 13:22:00,
2015-05-29 06:27:00,69.9,36.2,29.80,WNW,284,0.0,0.0,29,0.00,,,0.00,Wunderground v.1.15,2015-05-29 13:27:00,
2015-05-29 06:32:00,70.5,36.7,29.80,WNW,284,0.0,0.0,29,0.00,,,0.00,Wunderground v.1.15,2015-05-29 13:32:00,
2015-05-29 06:37:00,71.5,36.7,29.80,WNW,284,0.0,0.0,28,0.00,,,0.00,Wunderground v.1.15,2015-05-29 13:37:00,
2015-05-29 06:42:00,72.4,37.4,29.81,WNW,284,0.0,0.0,28,0.00,,,0.00,Wunderground v.1.15,2015-05-29 13:42:00,
2015-05-29 06:47:00,73.0,37.0,29.81,WNW,284,0.0,0.0,27,0.00,,,0.00,Wunderground v.1.15,2015-05-29 13:47:00,
2015-05-29 06:52:00,73.4,38.3,29.81,WNW,284,0.0,0.0,28,0.00,,,0.00,Wunderground v.1.15,2015-05-29 13:52:00,
2015-05-29 06:57:00,73.9,38.7,29.81,WNW,284,0.0,0.0,28,0.00,,,0.00,Wunderground v.1.15,2015-05-29 13:57:00,
2015-05-29 07:02:00,74.5,39.2,29.81,WNW,284,0.0,0.0,28,0.00,,,0.00,Wunderground v.1.15,2015-05-29 14:02:00,
2015-05-29 07:07:00,75.0,38.7,29.81,WNW,284,0.0,0.0,27,0.00,,,0.00,Wunderground v.1.15,2015-05-29 14:07:00,
2015-05-29 07:12:00,75.6,39.2,29.82,WNW,284,0.0,0.0,27,0.00,,,0.00,Wunderground v.1.15,2015-05-29 14:12:00,
2015-05-29 07:17:00,76.2,38.8,29.82,WNW,284,0.0,0.0,26,0.00,,,0.00,Wunderground v.1.15,2015-05-29 14:17:00,
2015-05-29 07:22:00,76.9,39.4,29.82,WNW,284,0.0,0.0,26,0.00,,,0.00,Wunderground v.1.15,2015-05-29 14:22:00,
2015-05-29 07:27:00,77.7,39.1,29.82,WNW,283,0.0,0.0,25,0.00,,,0.00,Wunderground v.1.15,2015-05-29 14:27:00,
2015-05-29 07:32:00,78.4,38.6,29.82,WSW,252,2.0,3.0,24,0.00,,,0.00,Wunderground v.1.15,2015-05-29 14:32:00,
2015-05-29 07:37:00,79.1,39.2,29.82,WSW,237,4.0,5.0,24,0.00,,,0.00,Wunderground v.1.15,2015-05-29 14:37:00,
2015-05-29 07:42:00,79.7,39.7,29.82,SW,236,2.0,5.0,24,0.00,,,0.00,Wunderground v.1.15,2015-05-29 14:42:00,
2015-05-29 07:47:00,80.5,39.3,29.82,SW,218,2.0,6.0,23,0.00,,,0.00,Wunderground v.1.15,2015-05-29 14:47:00,
2015-05-29 07:52:00,81.1,38.6,29.82,SSW,204,1.0,6.0,22,0.00,,,0.00,Wunderground v.1.15,2015-05-29 14:52:00,
2015-05-29 07:57:00,81.6,39.1,29.82,SSW,198,2.0,6.0,22,0.00,,,0.00,Wunderground v.1.15,2015-05-29 14:57:00,
2015-05-29 08:02:00,82.1,38.3,29.82,SSW,196,3.0,5.0,21,0.00,,,0.00,Wunderground v.1.15,2015-05-29 15:02:00,
2015-05-29 08:07:00,82.4,38.5,29.82,SSW,195,2.0,5.0,21,0.00,,,0.00,Wunderground v.1.15,2015-05-29 15:07:00,
2015-05-29 08:12:00,82.7,38.8,29.82,South,188,2.0,5.0,21,0.00,,,0.00,Wunderground v.1.15,2015-05-29 15:12:00,
2015-05-29 08:17:00,83.1,39.1,29.83,South,188,2.0,5.0,21,0.00,,,0.00,Wunderground v.1.15,2015-05-29 15:17:00,
2015-05-29 08:22:00,83.4,36.8,29.82,South,187,1.0,5.0,19,0.00,,,0.00,Wunderground v.1.15,2015-05-29 15:22:00,
2015-05-29 08:27:00,83.9,37.2,29.82,South,170,4.0,6.0,19,0.00,,,0.00,Wunderground v.1.15,2015-05-29 15:27:00,
2015-05-29 08:33:00,84.3,37.5,29.83,SSE,163,0.0,6.0,19,0.00,,,0.00,Wunderground v.1.15,2015-05-29 15:33:00,
2015-05-29 08:38:00,84.7,37.9,29.83,SSE,159,4.0,6.0,19,0.00,,,0.00,Wunderground v.1.15,2015-05-29 15:38:00,
2015-05-29 08:43:00,85.0,36.7,29.83,SSE,150,2.0,5.0,18,0.00,,,0.00,Wunderground v.1.15,2015-05-29 15:43:00,
2015-05-29 08:48:00,85.6,37.2,29.83,SSE,148,2.0,5.0,18,0.00,,,0.00,Wunderground v.1.15,2015-05-29 15:48:00,
2015-05-29 08:53:00,86.0,37.5,29.83,SE,145,2.0,6.0,18,0.00,,,0.00,Wunderground v.1.15,2015-05-29 15:53:00,
2015-05-29 08:58:00,86.5,38.0,29.83,SE,144,0.0,6.0,18,0.00,,,0.00,Wunderground v.1.15,2015-05-29 15:58:00,
2015-05-29 09:03:00,87.0,38.4,29.82,SE,144,1.0,4.0,18,0.00,,,0.00,Wunderground v.1.15,2015-05-29 16:03:00,
2015-05-29 09:08:00,87.3,37.1,29.82,SE,144,1.0,4.0,17,0.00,,,0.00,Wunderground v.1.15,2015-05-29 16:08:00,
2015-05-29 09:13:00,87.8,37.6,29.82,SE,144,0.0,3.0,17,0.00,,,0.00,Wunderground v.1.15,2015-05-29 16:13:00,
2015-05-29 09:18:00,88.0,37.7,29.82,SE,144,0.0,4.0,17,0.00,,,0.00,Wunderground v.1.15,2015-05-29 16:18:00,
2015-05-29 09:23:00,88.5,38.1,29.82,SE,144,2.0,6.0,17,0.00,,,0.00,Wunderground v.1.15,2015-05-29 16:23:00,
2015-05-29 09:28:00,88.8,38.4,29.82,SE,143,0.0,6.0,17,0.00,,,0.00,Wunderground v.1.15,2015-05-29 16:28:00,
2015-05-29 09:33:00,89.0,37.0,29.82,SE,141,4.0,4.0,16,0.00,,,0.00,Wunderground v.1.15,2015-05-29 16:33:00,
2015-05-29 09:38:00,89.0,37.0,29.82,SE,138,0.0,5.0,16,0.00,,,0.00,Wunderground v.1.15,2015-05-29 16:38:00,
2015-05-29 09:43:00,89.0,37.0,29.82,SE,127,3.0,5.0,16,0.00,,,0.00,Wunderground v.1.15,2015-05-29 16:43:00,
2015-05-29 09:48:00,89.2,35.5,29.82,ESE,120,2.0,7.0,15,0.00,,,0.00,Wunderground v.1.15,2015-05-29 16:48:00,
2015-05-29 09:53:00,89.5,35.7,29.81,ESE,112,5.0,7.0,15,0.00,,,0.00,Wunderground v.1.15,2015-05-29 16:53:00,
2015-05-29 09:58:00,90.0,34.4,29.82,ESE,112,4.0,7.0,14,0.00,,,0.00,Wunderground v.1.15,2015-05-29 16:58:00,
2015-05-29 10:04:00,90.5,36.5,29.81,ESE,112,2.0,5.0,15,0.00,,,0.00,Wunderground v.1.15,2015-05-29 17:04:00,
2015-05-29 10:09:00,91.2,35.3,29.81,ESE,113,4.0,7.0,14,0.00,,,0.00,Wunderground v.1.15,2015-05-29 17:09:00,
2015-05-29 10:14:00,91.8,33.9,29.81,ESE,113,0.0,4.0,13,0.00,,,0.00,Wunderground v.1.15,2015-05-29 17:14:00,
2015-05-29 10:19:00,92.6,34.6,29.81,ESE,114,7.0,7.0,13,0.00,,,0.00,Wunderground v.1.15,2015-05-29 17:19:00,
2015-05-29 10:24:00,93.0,34.9,29.81,ESE,115,4.0,7.0,13,0.00,,,0.00,Wunderground v.1.15,2015-05-29 17:24:00,
2015-05-29 10:29:00,92.9,34.8,29.81,ESE,111,4.0,8.0,13,0.00,,,0.00,Wunderground v.1.15,2015-05-29 17:29:00,
2015-05-29 10:34:00,92.8,34.7,29.81,ESE,110,3.0,5.0,13,0.00,,,0.00,Wunderground v.1.15,2015-05-29 17:34:00,
2015-05-29 10:39:00,92.9,34.8,29.81,ESE,110,0.0,5.0,13,0.00,,,0.00,Wunderground v.1.15,2015-05-29 17:39:00,
2015-05-29 10:44:00,93.3,35.1,29.81,ESE,110,2.0,2.0,13,0.00,,,0.00,Wunderground v.1.15,2015-05-29 17:44:00,
2015-05-29 10:49:00,94.1,33.7,29.80,ESE,110,0.0,0.0,12,0.00,,,0.00,Wunderground v.1.15,2015-05-29 17:49:00,
2015-05-29 10:54:00,94.7,34.2,29.80,ESE,110,0.0,3.0,12,0.00,,,0.00,Wunderground v.1.15,2015-05-29 17:54:00,
2015-05-29 10:59:00,95.3,32.5,29.80,ESE,110,0.0,0.0,11,0.00,,,0.00,Wunderground v.1.15,2015-05-29 17:59:00,
2015-05-29 11:04:00,95.5,32.6,29.79,SE,126,2.0,7.0,11,0.00,,,0.00,Wunderground v.1.15,2015-05-29 18:04:00,
2015-05-29 11:09:00,95.7,32.8,29.79,SE,125,0.0,2.0,11,0.00,,,0.00,Wunderground v.1.15,2015-05-29 18:09:00,
2015-05-29 11:14:00,95.5,34.8,29.79,SE,125,1.0,5.0,12,0.00,,,0.00,Wunderground v.1.15,2015-05-29 18:14:00,
2015-05-29 11:19:00,96.2,33.2,29.80,SE,128,3.0,5.0,11,0.00,,,0.00,Wunderground v.1.15,2015-05-29 18:19:00,
2015-05-29 11:24:00,96.8,33.6,29.79,SE,128,0.0,5.0,11,0.00,,,0.00,Wunderground v.1.15,2015-05-29 18:24:00,
2015-05-29 11:29:00,97.4,31.7,29.79,SE,128,0.0,1.0,10,0.00,,,0.00,Wunderground v.1.15,2015-05-29 18:29:00,
2015-05-29 11:34:00,97.4,31.7,29.79,ESE,111,2.0,7.0,10,0.00,,,0.00,Wunderground v.1.15,2015-05-29 18:34:00,
2015-05-29 11:39:00,97.1,31.5,29.79,ESE,109,1.0,5.0,10,0.00,,,0.00,Wunderground v.1.15,2015-05-29 18:39:00,
2015-05-29 11:44:00,97.2,31.6,29.78,ESE,107,0.0,5.0,10,0.00,,,0.00,Wunderground v.1.15,2015-05-29 18:44:00,
2015-05-29 11:49:00,97.2,31.6,29.78,ESE,102,2.0,2.0,10,0.00,,,0.00,Wunderground v.1.15,2015-05-29 18:49:00,
2015-05-29 11:54:00,97.8,32.0,29.78,ESE,102,0.0,4.0,10,0.00,,,0.00,Wunderground v.1.15,2015-05-29 18:54:00,
2015-05-29 11:59:00,97.8,32.0,29.78,ESE,102,0.0,1.0,10,0.00,,,0.00,Wunderground v.1.15,2015-05-29 18:59:00,
2015-05-29 12:04:00,98.3,32.4,29.77,ESE,102,1.0,4.0,10,0.00,,,0.00,Wunderground v.1.15,2015-05-29 19:04:00,
2015-05-29 12:09:00,99.2,33.1,29.77,ESE,102,3.0,3.0,10,0.00,,,0.00,Wunderground v.1.15,2015-05-29 19:09:00,
2015-05-29 12:14:00,99.6,33.4,29.77,ESE,103,0.0,4.0,10,0.00,,,0.00,Wunderground v.1.15,2015-05-29 19:14:00,
2015-05-29 12:19:00,100.3,31.3,29.77,WSW,254,1.0,4.0,9,0.00,,,0.00,Wunderground v.1.15,2015-05-29 19:19:00,
2015-05-29 12:24:00,100.1,31.1,29.77,WSW,250,0.0,4.0,9,0.00,,,0.00,Wunderground v.1.15,2015-05-29 19:24:00,
2015-05-29 12:29:00,99.7,30.8,29.76,SW,228,3.0,3.0,9,0.00,,,0.00,Wunderground v.1.15,2015-05-29 19:29:00,
2015-05-29 12:34:00,99.9,31.0,29.76,South,181,0.0,6.0,9,0.00,,,0.00,Wunderground v.1.15,2015-05-29 19:34:00,
2015-05-29 12:39:00,99.9,31.0,29.76,South,181,1.0,1.0,9,0.00,,,0.00,Wunderground v.1.15,2015-05-29 19:39:00,
2015-05-29 12:44:00,99.9,31.0,29.76,SSW,198,0.0,5.0,9,0.00,,,0.00,Wunderground v.1.15,2015-05-29 19:44:00,
2015-05-29 12:49:00,99.5,30.7,29.76,ESE,121,5.0,7.0,9,0.00,,,0.00,Wunderground v.1.15,2015-05-29 19:49:00,
2015-05-29 12:54:00,98.9,30.2,29.75,ESE,121,0.0,7.0,9,0.00,,,0.00,Wunderground v.1.15,2015-05-29 19:54:00,
2015-05-29 12:59:00,98.8,30.2,29.75,ESE,121,0.0,1.0,9,0.00,,,0.00,Wunderground v.1.15,2015-05-29 19:59:00,
2015-05-29 13:05:00,98.5,32.5,29.75,NNW,338,0.0,7.0,10,0.00,,,0.00,Wunderground v.1.15,2015-05-29 20:05:00,
2015-05-29 13:10:00,98.9,30.2,29.75,North,5,4.0,6.0,9,0.00,,,0.00,Wunderground v.1.15,2015-05-29 20:10:00,
2015-05-29 13:15:00,98.8,32.8,29.75,NNW,327,3.0,6.0,10,0.00,,,0.00,Wunderground v.1.15,2015-05-29 20:15:00,
2015-05-29 13:20:00,98.7,32.7,29.74,NNW,342,3.0,8.0,10,0.00,,,0.00,Wunderground v.1.15,2015-05-29 20:20:00,
2015-05-29 13:25:00,98.5,32.5,29.74,NNE,13,6.0,11.0,10,0.00,,,0.00,Wunderground v.1.15,2015-05-29 20:25:00,
2015-05-29 13:30:00,98.3,32.4,29.74,ENE,65,2.0,7.0,10,0.00,,,0.00,Wunderground v.1.15,2015-05-29 20:30:00,
2015-05-29 13:35:00,98.2,32.3,29.74,NW,326,4.0,11.0,10,0.00,,,0.00,Wunderground v.1.15,2015-05-29 20:35:00,
2015-05-29 13:40:00,98.5,32.5,29.74,NW,309,3.0,7.0,10,0.00,,,0.00,Wunderground v.1.15,2015-05-29 20:40:00,
2015-05-29 13:45:00,98.9,30.2,29.74,WNW,290,0.0,7.0,9,0.00,,,0.00,Wunderground v.1.15,2015-05-29 20:45:00,
2015-05-29 13:50:00,99.1,30.4,29.73,NNE,15,0.0,6.0,9,0.00,,,0.00,Wunderground v.1.15,2015-05-29 20:50:00,
2015-05-29 13:55:00,98.7,32.7,29.73,North,11,7.0,7.0,10,0.00,,,0.00,Wunderground v.1.15,2015-05-29 20:55:00,
2015-05-29 14:00:00,98.7,32.7,29.73,North,10,3.0,9.0,10,0.00,,,0.00,Wunderground v.1.15,2015-05-29 21:00:00,
2015-05-29 14:05:00,98.5,32.5,29.72,ENE,65,3.0,9.0,10,0.00,,,0.00,Wunderground v.1.15,2015-05-29 21:05:00,
2015-05-29 14:10:00,98.4,32.5,29.72,East,79,3.0,3.0,10,0.00,,,0.00,Wunderground v.1.15,2015-05-29 21:10:00,
2015-05-29 14:15:00,99.0,32.9,29.72,NW,319,4.0,7.0,10,0.00,,,0.00,Wunderground v.1.15,2015-05-29 21:15:00,
2015-05-29 14:20:00,99.6,30.8,29.72,WNW,301,2.0,7.0,9,0.00,,,0.00,Wunderground v.1.15,2015-05-29 21:20:00,
2015-05-29 14:25:00,99.8,30.9,29.72,North,355,6.0,10.0,9,0.00,,,0.00,Wunderground v.1.15,2015-05-29 21:25:00,
2015-05-29 14:30:00,99.7,30.8,29.72,NNW,331,2.0,7.0,9,0.00,,,0.00,Wunderground v.1.15,2015-05-29 21:30:00,
2015-05-29 14:35:00,99.6,30.8,29.71,North,355,6.0,7.0,9,0.00,,,0.00,Wunderground v.1.15,2015-05-29 21:35:00,
2015-05-29 14:40:00,99.6,30.8,29.72,NNW,341,7.0,8.0,9,0.00,,,0.00,Wunderground v.1.15,2015-05-29 21:40:00,
2015-05-29 14:45:00,99.2,30.5,29.71,North,5,0.0,10.0,9,0.00,,,0.00,Wunderground v.1.15,2015-05-29 21:45:00,
2015-05-29 14:50:00,98.9,30.2,29.71,ENE,61,1.0,2.0,9,0.00,,,0.00,Wunderground v.1.15,2015-05-29 21:50:00,
2015-05-29 14:55:00,99.1,30.4,29.71,NE,42,0.0,9.0,9,0.00,,,0.00,Wunderground v.1.15,2015-05-29 21:55:00,
2015-05-29 15:00:00,99.8,30.9,29.70,NNE,15,2.0,4.0,9,0.00,,,0.00,Wunderground v.1.15,2015-05-29 22:00:00,
2015-05-29 15:05:00,99.8,30.9,29.70,NW,321,4.0,8.0,9,0.00,,,0.00,Wunderground v.1.15,2015-05-29 22:05:00,
2015-05-29 15:10:00,99.6,30.8,29.70,North,350,0.0,3.0,9,0.00,,,0.00,Wunderground v.1.15,2015-05-29 22:10:00,
2015-05-29 15:15:00,99.8,30.9,29.70,NNE,16,1.0,7.0,9,0.00,,,0.00,Wunderground v.1.15,2015-05-29 22:15:00,
2015-05-29 15:20:00,99.7,30.8,29.69,North,5,3.0,3.0,9,0.00,,,0.00,Wunderground v.1.15,2015-05-29 22:20:00,
2015-05-29 15:25:00,99.4,30.6,29.69,NE,44,0.0,7.0,9,0.00,,,0.00,Wunderground v.1.15,2015-05-29 22:25:00,
2015-05-29 15:30:00,99.3,30.5,29.69,NNE,15,7.0,10.0,9,0.00,,,0.00,Wunderground v.1.15,2015-05-29 22:30:00,
2015-05-29 15:35:00,99.4,30.6,29.69,North,355,5.0,10.0,9,0.00,,,0.00,Wunderground v.1.15,2015-05-29 22:35:00,
2015-05-29 15:40:00,99.6,30.8,29.69,WNW,302,1.0,5.0,9,0.00,,,0.00,Wunderground v.1.15,2015-05-29 22:40:00,
2015-05-29 15:45:00,99.6,30.8,29.68,NW,315,0.0,8.0,9,0.00,,,0.00,Wunderground v.1.15,2015-05-29 22:45:00,
2015-05-29 15:51:00,100.1,28.2,29.68,West,278,5.0,10.0,8,0.00,,,0.00,Wunderground v.1.15,2015-05-29 22:51:00,
2015-05-29 15:56:00,100.3,28.4,29.68,WNW,292,0.0,10.0,8,0.00,,,0.00,Wunderground v.1.15,2015-05-29 22:56:00,
2015-05-29 16:01:00,100.5,28.5,29.68,WNW,292,0.0,1.0,8,0.00,,,0.00,Wunderground v.1.15,2015-05-29 23:01:00,
2015-05-29 16:06:00,100.7,28.7,29.68,NNW,341,5.0,6.0,8,0.00,,,0.00,Wunderground v.1.15,2015-05-29 23:06:00,
2015-05-29 16:11:00,100.5,28.5,29.68,NNW,338,4.0,6.0,8,0.00,,,0.00,Wunderground v.1.15,2015-05-29 23:11:00,
2015-05-29 16:16:00,100.1,28.2,29.68,NW,322,3.0,9.0,8,0.00,,,0.00,Wunderground v.1.15,2015-05-29 23:16:00,
2015-05-29 16:21:00,99.9,28.1,29.68,NW,321,0.0,3.0,8,0.00,,,0.00,Wunderground v.1.15,2015-05-29 23:21:00,
2015-05-29 16:26:00,99.9,28.1,29.67,NNW,329,1.0,7.0,8,0.00,,,0.00,Wunderground v.1.15,2015-05-29 23:26:00,
2015-05-29 16:31:00,99.8,28.0,29.67,North,349,0.0,4.0,8,0.00,,,0.00,Wunderground v.1.15,2015-05-29 23:31:00,